Wind_Speed
31 31 28 27 27 20 25 29 25 33 34 36 36 34 33 30 27 27 28 20 14 8 15 27 44 44 44 42 45 38 39 39 37 41 41 37 39 40 34 29 25 21 22 17 16 17 17 15 10
32 33 29 26 23 22 23 26 29 27 32 33 34 34 30 26 30 34 30 29 22 12 9 28 42 47 46 42 46 36 42 42 41 40 34 42 40 42 35 30 31 24 23 17 15 17 16 14 12
35 34 30 28 26 23 21 21 27 26 29 31 30 32 27 26 27 32 31 31 26 22 7 7 24 42 49 48 53 48 44 40 42 44 41 37 35 36 33 22 24 22 22 19 16 15 15 16 14
39 42 46 25 24 28 22 22 24 27 27 26 28 30 31 23 20 26 27 29 30 27 22 12 7 13 25 43 56 60 56 52 46 38 37 40 32 29 32 27 18 20 20 13 12 18 18 15 16
41 37 34 17 44 39 26 22 24 26 26 24 25 25 27 25 18 18 23 23 26 27 28 24 14 5 7 13 38 57 60 54 50 48 43 38 37 33 33 29 31 24 19 15 13 19 19 18 16
36 30 33 42 50 40 26 24 25 26 24 23 24 21 22 23 20 15 19 21 21 24 28 27 22 10 4 4 8 39 61 56 58 49 45 43 46 40 31 29 26 23 21 12 15 17 18 17 16
25 21 37 23 38 29 27 31 32 27 26 20 22 22 19 18 20 21 18 17 16 17 22 26 25 20 5 6 6 11 31 57 60 58 50 41 37 29 30 30 24 28 23 17 16 17 16 15 16
20 16 19 22 45 24 23 31 37 30 27 22 19 19 19 17 18 19 21 19 16 14 16 20 24 22 17 6 8 11 12 17 30 47 54 46 43 32 28 31 28 26 23 21 22 20 18 15 16
18 11 10 24 19 45 37 44 41 31 26 23 21 20 19 15 15 16 18 20 20 14 12 15 20 23 20 11 11 10 11 12 13 17 22 33 38 39 39 35 26 27 27 26 25 24 21 18 17
21 16 4 8 12 5 23 38 38 32 24 18 18 13 19 16 11 12 14 17 20 20 11 9 15 20 20 15 11 8 8 10 13 15 16 18 21 27 30 27 25 25 27 25 22 22 20 18 17
23 23 20 19 23 33 42 46 33 29 27 8 15 28 23 14 11 8 9 11 16 19 14 9 9 15 18 16 12 12 10 10 14 15 18 19 11 20 26 26 24 22 22 22 23 22 21 18 19
24 21 20 22 24 32 38 35 30 27 25 20 12 25 14 14 13 8 5 7 11 14 16 12 6 8 13 16 14 12 12 13 13 14 18 18 23 19 18 19 21 21 21 22 22 20 17 19 25
26 23 21 19 24 27 30 28 28 23 24 28 31 30 24 20 13 8 7 4 4 9 11 13 9 4 6 12 14 13 11 10 10 10 12 14 18 16 16 15 19 22 20 20 17 17 19 20 20
32 29 25 23 23 26 25 26 23 22 20 25 31 26 31 24 20 10 7 7 6 1 6 9 10 10 3 4 11 12 11 10 10 8 6 6 12 14 15 15 14 15 16 16 15 19 18 15 17
35 32 29 28 26 27 25 30 26 24 20 23 27 33 31 32 24 17 11 8 8 7 2 3 5 7 9 4 3 6 10 8 22 13 3 9 11 12 15 17 16 16 17 14 16 18 16 17 17
36 35 31 32 30 28 26 29 34 29 25 24 25 30 30 33 31 24 17 13 12 9 10 5 2 3 4 7 4 3 4 5 10 13 15 17 16 12 12 13 14 20 18 14 13 16 19 18 16
41 38 35 35 37 33 31 29 33 35 34 32 25 30 33 34 36 31 25 20 16 14 12 13 8 5 2 1 5 3 3 4 5 9 14 16 16 15 15 14 14 17 18 19 17 18 17 19 19
41 41 41 41 41 39 37 34 34 36 38 36 32 32 32 35 38 38 32 27 23 18 15 16 17 13 9 5 3 1 2 2 6 11 11 10 12 15 17 17 16 15 18 23 25 24 21 19 20
42 44 45 46 45 43 40 39 39 41 37 42 41 36 36 37 41 42 37 34 28 24 19 17 20 19 16 13 9 6 3 4 4 7 14 12 14 15 15 14 17 16 14 23 23 28 22 21 23
48 46 48 50 50 47 46 42 46 45 47 46 49 47 44 43 43 44 43 39 35 30 24 21 19 23 23 20 16 12 9 5 3 4 7 17 18 17 17 18 18 16 17 17 24 28 35 33 27
52 54 54 54 53 52 52 43 50 53 56 56 54 52 50 53 47 47 44 45 40 36 32 26 23 20 25 26 22 17 14 10 6 3 4 3 12 21 19 18 19 17 17 21 24 27 25 29 33
55 57 58 60 58 52 61 53 50 58 62 60 56 52 52 55 52 55 46 49 45 44 38 32 30 25 23 26 26 23 19 16 12 9 4 1 4 7 20 21 21 19 19 18 20 23 25 26 27
58 60 63 64 61 58 57 65 62 62 59 53 45 48 49 56 58 58 49 55 52 47 43 38 35 31 25 26 28 26 23 19 18 12 10 4 3 7 8 11 15 18 24 25 23 22 21 23 24
59 61 64 64 62 60 58 60 58 55 48 35 34 40 48 55 60 62 54 57 55 52 47 44 39 36 30 27 27 27 25 22 20 18 14 10 5 6 8 11 19 15 20 32 31 27 28 27 25
60 63 65 65 64 65 70 70 58 47 35 26 30 39 43 58 66 67 55 57 56 55 53 48 44 42 36 33 29 27 24 23 23 21 18 10 10 10 13 15 20 29 36 35 35 32 31 30 32
64 68 69 67 64 64 70 69 56 37 28 28 34 45 44 62 63 65 50 54 55 56 55 50 48 46 41 37 31 28 25 24 24 23 21 22 20 15 14 16 20 27 34 29 33 32 34 35 34
66 70 71 69 67 65 65 66 43 27 24 25 24 30 30 43 52 53 50 44 49 50 56 54 50 48 45 40 35 33 29 26 25 25 22 24 22 18 19 17 21 28 34 37 37 34 33 39 40
69 68 70 71 73 68 67 54 37 24 13 21 22 15 19 31 43 45 45 58 55 56 59 58 53 51 47 44 40 36 32 28 27 29 28 27 25 25 24 22 24 23 27 34 36 39 37 35 37
73 72 71 71 77 71 67 56 30 17 19 2 13 21 19 16 10 35 50 50 56 55 51 54 55 55 51 46 43 41 38 34 32 32 32 30 31 29 29 28 27 31 27 27 23 28 37 38 37
73 71 69 70 73 71 63 52 28 12 2 16 24 30 17 36 35 61 54 50 54 59 51 49 55 53 51 47 43 45 44 41 42 40 38 36 35 36 34 31 34 40 38 31 35 35 38 37 43
Wind_Direction
351 352 357 3 7 354 13 13 31 43 39 40 34 33 32 47 54 44 44 47 45 83 186 193 187 189 196 202 198 214 222 220 221 211 214 225 230 234 245 250 256 270 273 267 256 256 246 227 234
342 343 352 350 2 358 10 9 22 38 40 40 37 36 32 42 51 47 45 48 52 57 129 208 197 201 200 202 204 207 221 225 226 219 235 229 237 244 249 256 262 267 263 245 257 246 234 216 231
340 338 340 348 351 0 7 9 8 21 41 38 39 40 33 34 46 42 39 43 52 54 55 167 210 222 217 211 203 210 199 215 227 227 232 236 238 244 249 252 246 252 251 258 244 239 231 226 235
341 339 334 326 352 348 1 0 6 8 23 35 37 41 41 31 40 42 39 41 44 45 45 55 201 203 218 225 221 218 219 221 225 217 225 233 235 227 232 247 238 239 239 245 252 240 238 230 230
342 328 350 1 335 339 341 351 348 357 2 20 34 36 43 38 30 22 25 39 41 39 46 44 46 203 195 216 223 220 224 223 227 230 230 225 232 241 253 255 255 259 219 244 238 245 230 226 236
331 354 313 304 315 333 333 339 340 337 350 5 15 30 35 42 34 13 3 8 34 39 40 39 41 41 215 175 196 216 221 222 226 234 238 238 238 243 246 256 248 231 225 234 249 226 233 229 229
324 340 336 322 333 329 322 328 328 328 330 352 3 11 20 31 39 28 4 356 16 31 37 32 33 36 35 205 138 157 209 221 224 230 235 235 240 239 250 244 220 215 231 227 226 232 229 227 233
332 313 296 265 321 331 308 319 314 315 318 328 342 355 5 15 20 36 25 12 352 2 31 28 32 36 38 162 151 120 124 174 209 222 228 233 233 228 225 216 222 227 222 234 229 244 231 238 245
349 353 322 329 322 312 292 297 303 303 307 314 336 333 348 360 7 13 29 20 8 358 346 33 41 39 47 75 143 135 126 132 140 163 191 215 226 232 220 224 229 225 226 230 235 236 237 245 255
333 333 281 252 287 130 271 302 300 295 293 312 319 308 315 339 353 360 13 25 7 11 358 19 49 49 54 76 98 147 179 165 150 156 175 180 194 206 215 221 225 218 212 217 227 229 235 251 232
326 319 308 283 239 245 271 294 294 286 284 261 250 274 277 309 329 338 356 18 18 12 13 4 48 57 58 64 83 92 119 163 182 164 166 163 137 223 211 211 214 212 216 222 223 228 240 223 198
336 331 317 297 280 274 279 287 291 285 270 233 256 294 280 286 305 311 327 345 34 15 18 19 10 62 66 70 63 77 103 122 152 165 173 174 175 191 193 201 207 212 214 219 230 238 223 199 189
338 332 326 313 299 294 295 297 287 280 268 256 250 270 277 275 278 287 287 315 353 30 13 24 39 64 66 73 80 75 81 107 110 136 167 173 191 199 200 207 203 213 219 225 221 215 197 191 198
345 339 330 320 311 302 299 296 289 278 266 262 258 256 267 267 270 260 260 265 294 16 17 22 36 49 66 97 97 96 93 102 99 85 115 177 186 194 197 202 202 199 203 205 195 190 182 201 198
344 338 331 325 315 304 304 299 299 300 288 262 258 256 251 263 259 256 241 248 257 266 190 10 21 40 45 55 118 110 119 126 128 173 312 198 185 184 195 200 193 185 182 182 185 195 205 196 205
344 339 331 324 317 309 306 294 297 296 292 284 264 255 248 249 255 251 237 231 244 249 246 204 267 11 45 52 83 170 153 114 125 154 174 204 193 181 179 175 179 180 186 193 193 196 201 211 216
339 337 331 319 318 319 311 299 292 290 288 285 274 264 252 247 247 247 242 227 228 239 246 238 225 218 246 62 55 88 164 194 192 174 186 197 202 194 183 179 180 194 196 200 210 207 206 223 222
336 335 330 323 318 319 312 306 296 289 285 280 272 269 257 248 243 244 240 232 221 229 234 246 229 228 222 230 225 264 33 192 209 213 210 205 203 198 197 203 194 194 213 214 215 228 231 233 237
332 333 331 326 318 319 309 307 297 290 279 277 274 264 263 248 242 237 236 237 225 219 231 237 244 228 228 228 233 251 290 2 201 216 211 218 222 215 195 200 199 204 223 225 225 225 228 238 235
330 331 332 329 322 318 307 307 301 295 284 275 272 264 259 251 242 234 235 234 230 221 221 227 237 243 234 233 229 240 256 287 340 189 201 213 222 234 218 214 217 221 230 231 233 231 225 231 245
329 330 331 329 324 317 305 307 299 295 287 278 270 261 252 249 241 237 225 231 231 226 218 223 231 237 241 236 236 238 244 250 243 261 200 197 228 233 234 228 231 230 233 237 238 239 238 238 241
328 329 329 327 324 319 310 309 308 297 286 278 267 256 246 241 237 236 218 229 227 228 223 217 226 229 236 240 236 234 236 250 248 253 249 248 260 225 233 240 243 252 257 246 245 247 245 245 244
326 328 328 325 323 319 312 312 312 298 285 272 266 253 235 228 229 232 221 223 225 226 224 220 225 224 228 234 237 233 232 236 245 246 262 277 271 226 219 224 240 257 263 258 252 249 247 248 246
322 326 326 324 321 321 314 313 309 297 286 282 255 242 237 220 223 227 219 221 221 225 225 224 223 224 224 230 233 235 231 231 235 245 256 268 260 230 210 228 220 233 259 263 252 249 247 248 247
322 324 324 324 324 326 324 323 318 302 295 261 238 249 230 214 218 224 214 218 219 221 225 225 224 225 224 226 234 235 238 234 240 245 250 249 271 269 248 233 239 231 243 253 248 245 245 248 245
323 326 326 326 326 325 325 324 319 312 289 259 227 226 216 224 221 224 217 219 221 219 224 224 226 226 224 229 230 235 239 236 240 244 254 256 264 271 271 270 254 251 251 254 251 247 246 246 247
323 325 327 325 326 325 329 326 323 318 299 291 242 246 241 245 226 223 231 233 233 225 224 226 225 230 227 229 230 231 237 236 236 246 252 258 258 270 283 280 272 268 267 270 270 265 256 253 247
323 324 324 326 325 326 330 329 316 316 292 236 246 241 224 246 244 240 216 214 225 225 222 223 225 229 229 229 229 233 234 239 240 244 250 261 273 279 281 278 272 264 264 264 269 264 264 267 262
321 325 325 327 324 328 332 327 317 2 336 26 131 120 153 94 245 272 235 225 228 231 231 229 224 229 229 230 231 233 236 238 242 247 254 258 266 275 275 276 257 257 252 253 270 273 272 263 266
320 322 323 325 325 324 326 324 330 8 93 175 144 158 211 262 196 214 252 248 235 229 228 235 230 230 232 233 236 235 237 243 251 255 261 269 277 278 276 268 251 256 253 255 267 276 277 274 274
Height
10984 10981 10979 10975 10973 10972 10965 10961 10957 10952 10948 10944 10941 10936 10936 10931 10930 10928 10921 10916 10913 10909 10910 10910 10914 10917 10921 10925 10928 10932 10935 10940 10944 10949 10952 10955 10960 10964 10968 10971 10973 10977 10981 10981 10983 10985 10987 10989 10989
10981 10978 10976 10974 10971 10969 10967 10962 10959 10955 10952 10947 10943 10938 10936 10936 10932 10929 10926 10919 10916 10914 10914 10915 10916 10917 10919 10922 10926 10931 10932 10936 10940 10945 10948 10953 10958 10962 10966 10970 10972 10975 10978 10980 10980 10983 10984 10987 10988
10979 10976 10976 10972 10972 10969 10966 10965 10961 10959 10952 10950 10947 10941 10939 10937 10934 10932 10929 10924 10920 10919 10917 10917 10918 10918 10919 10921 10922 10926 10929 10933 10937 10941 10946 10950 10954 10959 10964 10968 10970 10973 10976 10978 10979 10981 10983 10985 10987
10980 10976 10971 10969 10968 10969 10965 10965 10963 10960 10957 10952 10949 10944 10941 10939 10937 10934 10932 10929 10925 10922 10920 10918 10916 10915 10915 10915 10917 10920 10923 10926 10933 10937 10943 10947 10952 10957 10961 10966 10969 10972 10974 10977 10977 10979 10981 10983 10985
10979 10961 10962 10967 10965 10965 10964 10962 10963 10961 10958 10954 10950 10948 10944 10941 10940 10938 10936 10933 10930 10926 10921 10918 10915 10913 10911 10909 10909 10913 10918 10922 10927 10931 10939 10944 10949 10954 10958 10962 10966 10970 10972 10975 10976 10978 10979 10981 10983
10977 10954 10971 10958 10964 10961 10964 10962 10963 10961 10960 10956 10953 10949 10946 10942 10941 10939 10937 10935 10931 10928 10923 10919 10916 10912 10909 10908 10905 10906 10912 10917 10923 10929 10933 10939 10945 10951 10956 10960 10964 10967 10971 10972 10974 10976 10978 10980 10982
10981 10975 10974 10955 10956 10958 10959 10962 10961 10961 10960 10958 10956 10952 10949 10945 10941 10939 10938 10935 10934 10930 10926 10921 10917 10913 10909 10907 10907 10906 10907 10913 10919 10926 10930 10937 10942 10948 10952 10956 10960 10964 10968 10970 10972 10975 10977 10978 10980
10978 10972 10973 10970 10960 10956 10953 10955 10959 10960 10959 10958 10956 10953 10951 10947 10943 10939 10937 10935 10933 10931 10927 10923 10919 10914 10910 10908 10909 10909 10909 10910 10915 10922 10928 10934 10941 10946 10950 10954 10958 10962 10965 10968 10970 10973 10975 10977 10978
10975 10972 10975 10973 10967 10956 10946 10948 10952 10957 10958 10954 10953 10951 10950 10949 10944 10940 10935 10934 10932 10930 10927 10925 10922 10917 10913 10911 10912 10913 10914 10915 10917 10920 10925 10931 10937 10943 10948 10950 10954 10958 10962 10965 10968 10971 10973 10975 10976
10967 10969 10972 10967 10974 10967 10932 10945 10950 10952 10954 10950 10943 10942 10947 10948 10945 10941 10938 10933 10933 10930 10928 10927 10924 10921 10918 10915 10916 10915 10916 10917 10919 10922 10926 10932 10939 10942 10945 10947 10950 10954 10958 10962 10966 10969 10971 10973 10975
10963 10960 10960 10957 10956 10950 10943 10944 10947 10950 10948 10943 10932 10933 10941 10946 10945 10942 10939 10935 10933 10931 10929 10928 10927 10924 10921 10920 10919 10918 10918 10919 10922 10924 10929 10934 10936 10945 10945 10946 10950 10953 10956 10960 10964 10966 10968 10971 10974
10958 10957 10954 10950 10950 10948 10943 10940 10940 10945 10945 10935 10934 10929 10936 10942 10943 10941 10938 10937 10933 10932 10930 10928 10928 10927 10925 10922 10922 10921 10921 10921 10922 10924 10929 10936 10940 10942 10942 10946 10949 10952 10956 10959 10962 10964 10967 10970 10973
10952 10951 10950 10949 10943 10940 10936 10934 10934 10937 10938 10933 10928 10929 10931 10939 10940 10939 10937 10936 10935 10932 10931 10930 10928 10928 10927 10925 10925 10924 10924 10925 10927 10930 10932 10936 10939 10941 10942 10945 10946 10951 10954 10958 10961 10964 10967 10970 10974
10944 10943 10941 10941 10939 10934 10932 10928 10926 10925 10927 10929 10927 10930 10930 10934 10936 10935 10934 10934 10934 10932 10931 10931 10930 10929 10929 10928 10927 10927 10928 10931 10935 10940 10940 10943 10942 10939 10941 10943 10945 10947 10951 10955 10960 10965 10968 10972 10974
10937 10935 10933 10931 10929 10926 10925 10917 10919 10917 10919 10918 10921 10920 10925 10926 10930 10931 10931 10931 10932 10931 10930 10930 10930 10929 10929 10928 10928 10928 10929 10932 10938 10933 10923 10938 10944 10941 10940 10942 10944 10947 10951 10955 10958 10962 10967 10971 10974
10932 10929 10926 10922 10921 10919 10918 10914 10909 10910 10910 10910 10912 10912 10916 10917 10921 10926 10927 10927 10929 10929 10929 10928 10929 10929 10929 10929 10929 10929 10929 10931 10936 10934 10932 10942 10944 10940 10940 10943 10946 10949 10952 10955 10958 10961 10964 10968 10972
10924 10922 10920 10914 10912 10912 10910 10908 10904 10901 10901 10901 10903 10902 10906 10910 10912 10918 10922 10922 10923 10925 10927 10927 10926 10926 10928 10928 10928 10928 10929 10931 10934 10938 10940 10941 10940 10939 10941 10942 10945 10950 10953 10954 10958 10960 10961 10966 10970
10919 10917 10912 10909 10904 10902 10899 10898 10896 10893 10891 10892 10894 10894 10896 10899 10904 10907 10914 10917 10918 10920 10923 10925 10925 10925 10925 10927 10928 10929 10929 10930 10931 10933 10935 10936 10936 10937 10940 10942 10946 10949 10951 10953 10956 10959 10961 10964 10967
10914 10909 10904 10898 10894 10894 10890 10888 10884 10882 10884 10880 10881 10885 10886 10889 10890 10898 10905 10910 10913 10915 10918 10919 10922 10923 10924 10925 10927 10928 10929 10929 10929 10930 10932 10934 10935 10936 10939 10941 10945 10947 10948 10949 10954 10957 10958 10959 10963
10903 10901 10897 10892 10885 10881 10876 10879 10873 10871 10868 10869 10868 10872 10874 10877 10880 10885 10893 10901 10906 10909 10911 10914 10916 10919 10920 10922 10924 10926 10927 10928 10928 10929 10930 10931 10934 10935 10937 10941 10942 10945 10945 10947 10951 10954 10956 10958 10960
10893 10888 10885 10881 10876 10869 10860 10870 10860 10854 10848 10847 10850 10853 10858 10861 10868 10871 10883 10888 10897 10902 10904 10908 10911 10913 10916 10918 10921 10923 10925 10926 10928 10929 10930 10930 10931 10933 10935 10939 10941 10943 10945 10947 10949 10952 10952 10954 10959
10883 10878 10873 10867 10863 10861 10838 10846 10849 10834 10822 10821 10825 10830 10836 10844 10853 10857 10871 10875 10885 10891 10898 10901 10904 10907 10909 10913 10916 10918 10921 10924 10925 10927 10929 10929 10929 10930 10931 10934 10934 10937 10941 10945 10945 10947 10948 10948 10953
10873 10866 10861 10854 10848 10843 10837 10818 10820 10806 10795 10794 10803 10809 10814 10826 10834 10842 10858 10863 10870 10881 10889 10893 10896 10901 10903 10906 10909 10914 10917 10920 10922 10925 10926 10927 10928 10927 10926 10930 10929 10932 10934 10937 10940 10944 10945 10947 10947
10864 10859 10852 10842 10836 10830 10821 10815 10801 10781 10776 10783 10787 10793 10805 10809 10819 10825 10844 10850 10860 10869 10879 10885 10889 10893 10897 10900 10904 10909 10913 10916 10919 10921 10923 10923 10926 10927 10925 10927 10929 10934 10932 10934 10937 10939 10942 10942 10943
10853 10849 10842 10831 10820 10808 10797 10787 10777 10766 10765 10767 10774 10785 10790 10791 10798 10810 10832 10842 10848 10858 10866 10876 10882 10886 10891 10895 10900 10905 10910 10913 10914 10917 10920 10922 10923 10925 10925 10924 10925 10926 10927 10928 10931 10933 10934 10935 10937
10840 10832 10824 10816 10811 10803 10788 10774 10761 10761 10754 10757 10764 10765 10775 10785 10791 10806 10829 10836 10840 10849 10857 10867 10873 10879 10885 10890 10896 10901 10905 10909 10911 10912 10914 10916 10919 10922 10923 10925 10926 10925 10923 10924 10923 10924 10923 10925 10928
10830 10821 10812 10805 10797 10791 10784 10764 10757 10753 10750 10757 10765 10767 10780 10779 10790 10805 10856 10842 10842 10847 10851 10857 10866 10872 10879 10885 10890 10895 10899 10903 10907 10908 10909 10909 10910 10913 10917 10919 10920 10919 10920 10919 10918 10918 10918 10918 10919
10818 10814 10804 10793 10782 10776 10770 10760 10752 10748 10745 10747 10748 10760 10775 10787 10790 10796 10808 10838 10828 10836 10842 10847 10857 10863 10872 10877 10882 10888 10893 10897 10901 10902 10903 10905 10906 10909 10910 10910 10912 10912 10913 10911 10911 10910 10910 10909 10909
10803 10797 10791 10783 10764 10760 10751 10747 10745 10749 10745 10750 10752 10764 10763 10784 10771 10783 10807 10808 10819 10829 10844 10848 10851 10854 10863 10870 10877 10883 10887 10891 10892 10894 10898 10899 10899 10900 10902 10903 10902 10903 10902 10903 10902 10901 10901 10900 10899
10792 10788 10782 10777 10760 10749 10742 10740 10745 10750 10745 10745 10751 10763 10772 10773 10788 10789 10796 10803 10805 10817 10833 10844 10849 10854 10861 10868 10872 10876 10880 10884 10884 10887 10890 10893 10894 10893 10892 10893 10892 10890 10893 10895 10894 10892 10891 10890 10888